Location: Burgwalden
(48.2830°N, 10.7576°E)
Time: 02:22:53
(UTC+00:00)

GP-B - Pass Details

Date: 26 September 2023
Orbit: 626 x 630 km, 89.8° (Epoch: 04 December)

Event Time Altitude Azimuth Distance (km) Brightness Sun altitude
Rises 04:05:33 0° 193° (SSW) 2,904 6.3 -11.3°
Reaches altitude 10° 04:07:50 10° 199° (SSW) 2,002 5.4 -10.9°
Maximum altitude 04:12:04 46° 273° (W) 856 3.4 -10.2°
Drops below altitude 10° 04:16:20 10° 347° (NNW) 2,022 5.7 -9.5°
Sets 04:18:39 0° 354° (N) 2,935 6.6 -9.1°
